JAL209 RJTT-RJGG

Flight info

Callsign JAL209
Flight time 0h 40m
Altitude 20000
Route BEKLA Y18 PIGAP Y88 SUGAL Y881 SLIDE
Aircraft B738/M-SDE2E3FGHIRWXY/LB1

Departure

Time 2026-05-06 11:36
Airport Tokyo Haneda International Airport (RJTT)

Arrival

Time 2026-05-06 12:16
Airport Chubu Centrair International Airport (RJGG)
Time Latitude Longitude Altitude Speed Heading
2026-05-06 11:20 35.54726 139.78412 25 ft 0 kts 60°
2026-05-06 11:25 35.54721 139.78402 22 ft 2 kts 58°
2026-05-06 11:26 35.54715 139.78387 24 ft 2 kts 60°
2026-05-06 11:26 35.54707 139.78372 23 ft 2 kts 59°
2026-05-06 11:26 35.54700 139.78357 22 ft 2 kts 59°
2026-05-06 11:26 35.54693 139.78343 22 ft 2 kts 58°
2026-05-06 11:27 35.54686 139.78329 22 ft 2 kts 56°
2026-05-06 11:27 35.54678 139.78315 22 ft 2 kts 50°
2026-05-06 11:27 35.54669 139.78304 22 ft 1 kts 33°
2026-05-06 11:27 35.54661 139.78299 22 ft 1 kts 360°
2026-05-06 11:28 35.54654 139.78300 23 ft 1 kts 340°
2026-05-06 11:28 35.54648 139.78302 26 ft 1 kts 334°
2026-05-06 11:28 35.54643 139.78305 23 ft 0 kts 331°
2026-05-06 11:29 35.54649 139.78301 25 ft 2 kts 330°
2026-05-06 11:29 35.54656 139.78279 23 ft 4 kts 278°
2026-05-06 11:30 35.54668 139.78239 23 ft 6 kts 308°
2026-05-06 11:30 35.54713 139.78203 24 ft 10 kts 329°
2026-05-06 11:30 35.54783 139.78151 24 ft 14 kts 329°
2026-05-06 11:30 35.54879 139.78083 22 ft 18 kts 330°
2026-05-06 11:31 35.54996 139.78000 24 ft 21 kts 330°
2026-05-06 11:31 35.55127 139.77907 24 ft 22 kts 330°
2026-05-06 11:31 35.55260 139.77813 22 ft 23 kts 330°
2026-05-06 11:31 35.55395 139.77718 21 ft 22 kts 330°
2026-05-06 11:32 35.55525 139.77625 21 ft 21 kts 329°
2026-05-06 11:32 35.55652 139.77534 21 ft 21 kts 330°
2026-05-06 11:32 35.55775 139.77448 23 ft 20 kts 330°
2026-05-06 11:32 35.55895 139.77364 23 ft 19 kts 335°
2026-05-06 11:33 35.55997 139.77439 22 ft 20 kts 60°
2026-05-06 11:33 35.56067 139.77586 22 ft 20 kts 59°
2026-05-06 11:33 35.56135 139.77730 25 ft 19 kts 60°
2026-05-06 11:33 35.56201 139.77870 24 ft 19 kts 60°
2026-05-06 11:34 35.56265 139.78008 28 ft 19 kts 60°
2026-05-06 11:34 35.56332 139.78150 26 ft 20 kts 59°
2026-05-06 11:34 35.56404 139.78295 25 ft 20 kts 58°
2026-05-06 11:34 35.56473 139.78446 30 ft 20 kts 60°
2026-05-06 11:35 35.56543 139.78592 27 ft 20 kts 59°
2026-05-06 11:35 35.56523 139.78700 29 ft 10 kts 146°
2026-05-06 11:35 35.56507 139.78712 29 ft 6 kts 150°
2026-05-06 11:35 35.56270 139.78880 30 ft 75 kts 150°
2026-05-06 11:36 35.55625 139.79338 26 ft 136 kts 150°
2026-05-06 11:36 35.54706 139.79985 343 ft 159 kts 149°
2026-05-06 11:36 35.53740 139.80771 869 ft 172 kts 142°
2026-05-06 11:36 35.52905 139.81717 1778 ft 161 kts 140°
2026-05-06 11:37 35.52062 139.82726 2232 ft 183 kts 140°
2026-05-06 11:37 35.51116 139.83944 2480 ft 212 kts 129°
2026-05-06 11:37 35.50622 139.85759 2718 ft 240 kts 95°
2026-05-06 11:37 35.50990 139.87860 2920 ft 268 kts 64°
2026-05-06 11:38 35.52077 139.89792 3497 ft 279 kts 53°
2026-05-06 11:38 35.53321 139.91632 4311 ft 282 kts 44°
2026-05-06 11:38 35.54960 139.92970 5089 ft 286 kts 25°
2026-05-06 11:38 35.56786 139.93958 5870 ft 289 kts 21°
2026-05-06 11:39 35.58658 139.94905 6641 ft 292 kts 21°
2026-05-06 11:39 35.60553 139.95852 7351 ft 295 kts 16°
2026-05-06 11:39 35.62569 139.96232 8057 ft 294 kts 358°
2026-05-06 11:39 35.64621 139.96310 8830 ft 296 kts 358°
2026-05-06 11:40 35.66691 139.96414 9582 ft 299 kts 358°
2026-05-06 11:40 35.68787 139.96538 10279 ft 304 kts 358°
2026-05-06 11:40 35.70929 139.96335 10484 ft 316 kts 337°
2026-05-06 11:40 35.72849 139.94987 10660 ft 325 kts 311°
2026-05-06 11:41 35.74092 139.92648 10813 ft 335 kts 286°
2026-05-06 11:41 35.74590 139.89787 10996 ft 349 kts 275°
2026-05-06 11:41 35.74891 139.86790 11406 ft 357 kts 275°
2026-05-06 11:41 35.75201 139.83747 12003 ft 360 kts 275°
2026-05-06 11:42 35.75540 139.80682 12637 ft 362 kts 276°
2026-05-06 11:42 35.75899 139.77595 13231 ft 366 kts 276°
2026-05-06 11:42 35.76263 139.74524 13807 ft 370 kts 276°
2026-05-06 11:42 35.76776 139.71358 14368 ft 375 kts 284°
2026-05-06 11:43 35.77552 139.68279 14955 ft 378 kts 285°
2026-05-06 11:43 35.78338 139.65225 15529 ft 380 kts 285°
2026-05-06 11:43 35.79134 139.62105 16127 ft 383 kts 285°
2026-05-06 11:44 35.80718 139.55795 17243 ft 389 kts 285°
2026-05-06 11:44 35.81515 139.52593 17770 ft 392 kts 285°
2026-05-06 11:44 35.82310 139.49362 18306 ft 395 kts 284°
2026-05-06 11:44 35.82860 139.46041 18792 ft 396 kts 275°
2026-05-06 11:45 35.82984 139.42664 19366 ft 393 kts 269°
2026-05-06 11:45 35.83010 139.39299 19921 ft 393 kts 269°
2026-05-06 11:45 35.83038 139.35922 20143 ft 397 kts 269°
2026-05-06 11:45 35.83076 139.32484 20171 ft 405 kts 269°
2026-05-06 11:46 35.83122 139.28994 20180 ft 411 kts 269°
2026-05-06 11:46 35.83174 139.25470 20168 ft 410 kts 269°
2026-05-06 11:46 35.83227 139.21970 20179 ft 408 kts 269°
2026-05-06 11:46 35.83278 139.18473 20183 ft 408 kts 269°
2026-05-06 11:47 35.83255 139.14975 20178 ft 408 kts 266°
2026-05-06 11:47 35.83110 139.11480 20178 ft 408 kts 266°
2026-05-06 11:47 35.82927 139.07990 20197 ft 408 kts 265°
2026-05-06 11:47 35.82738 139.04511 20190 ft 407 kts 265°
2026-05-06 11:48 35.82550 139.01029 20187 ft 408 kts 265°
2026-05-06 11:48 35.82369 138.97541 20190 ft 408 kts 265°
2026-05-06 11:48 35.82193 138.94046 20196 ft 409 kts 265°
2026-05-06 11:48 35.82020 138.90546 20196 ft 409 kts 265°
2026-05-06 11:49 35.81847 138.87043 20193 ft 410 kts 265°
2026-05-06 11:49 35.81675 138.83543 20186 ft 409 kts 265°
2026-05-06 11:49 35.81499 138.80043 20188 ft 409 kts 265°
2026-05-06 11:49 35.81323 138.76550 20210 ft 408 kts 265°
2026-05-06 11:50 35.81143 138.73058 20172 ft 408 kts 265°
2026-05-06 11:50 35.80965 138.69574 20198 ft 407 kts 265°
2026-05-06 11:50 35.80790 138.66091 20205 ft 407 kts 265°
2026-05-06 11:50 35.80609 138.62614 20192 ft 408 kts 265°
2026-05-06 11:51 35.80423 138.59121 20198 ft 409 kts 265°
2026-05-06 11:51 35.80237 138.55622 20176 ft 409 kts 265°
2026-05-06 11:51 35.80050 138.52125 20203 ft 409 kts 265°
2026-05-06 11:51 35.79863 138.48633 20207 ft 410 kts 265°
2026-05-06 11:52 35.79674 138.45124 20194 ft 411 kts 265°
2026-05-06 11:52 35.79484 138.41610 20188 ft 411 kts 265°
2026-05-06 11:52 35.79282 138.38095 20194 ft 411 kts 265°
2026-05-06 11:52 35.79040 138.34595 20190 ft 411 kts 261°
2026-05-06 11:53 35.78459 138.31152 20190 ft 411 kts 255°
2026-05-06 11:53 35.77503 138.27843 20178 ft 410 kts 246°
2026-05-06 11:53 35.76276 138.24677 20204 ft 409 kts 245°
2026-05-06 11:53 35.75036 138.21518 20215 ft 410 kts 245°
2026-05-06 11:54 35.73811 138.18382 20180 ft 412 kts 245°
2026-05-06 11:54 35.72577 138.15198 20182 ft 413 kts 245°
2026-05-06 11:54 35.71332 138.11967 20191 ft 414 kts 245°
2026-05-06 11:54 35.70117 138.08805 20186 ft 414 kts 246°
2026-05-06 11:55 35.68886 138.05600 20187 ft 414 kts 246°
2026-05-06 11:55 35.67655 138.02402 20196 ft 413 kts 245°
2026-05-06 11:55 35.66437 137.99212 20184 ft 413 kts 246°
2026-05-06 11:55 35.65262 137.95994 20189 ft 412 kts 247°
2026-05-06 11:56 35.64106 137.92768 20184 ft 412 kts 247°
2026-05-06 11:56 35.62949 137.89544 20166 ft 412 kts 247°
2026-05-06 11:56 35.61786 137.86328 20180 ft 411 kts 247°
2026-05-06 11:56 35.60622 137.83132 20183 ft 410 kts 246°
2026-05-06 11:57 35.59255 137.80052 20190 ft 412 kts 238°
2026-05-06 11:57 35.57544 137.77214 20182 ft 415 kts 231°
2026-05-06 11:57 35.55514 137.74671 20178 ft 417 kts 227°
2026-05-06 11:57 35.53447 137.72160 20179 ft 418 kts 227°
2026-05-06 11:58 35.51402 137.69634 20174 ft 418 kts 228°
2026-05-06 11:58 35.49369 137.67083 20165 ft 417 kts 229°
2026-05-06 11:58 35.47417 137.64453 20159 ft 416 kts 231°
2026-05-06 11:58 35.45514 137.61786 20172 ft 415 kts 231°
2026-05-06 11:59 35.43632 137.59129 20163 ft 406 kts 231°
2026-05-06 11:59 35.41807 137.56571 20155 ft 392 kts 231°
2026-05-06 11:59 35.40028 137.54094 20161 ft 386 kts 231°
2026-05-06 11:59 35.38250 137.51630 20158 ft 386 kts 231°
2026-05-06 12:00 35.36465 137.49164 20035 ft 387 kts 231°
2026-05-06 12:00 35.34680 137.46702 19576 ft 385 kts 231°
2026-05-06 12:00 35.32903 137.44257 19020 ft 383 kts 230°
2026-05-06 12:00 35.31141 137.41834 18477 ft 380 kts 230°
2026-05-06 12:01 35.29273 137.39547 17805 ft 381 kts 220°
2026-05-06 12:01 35.26952 137.37935 16953 ft 390 kts 206°
2026-05-06 12:01 35.24453 137.36664 16310 ft 388 kts 205°
2026-05-06 12:01 35.21961 137.35418 15729 ft 385 kts 205°
2026-05-06 12:02 35.19495 137.34180 15148 ft 382 kts 205°
2026-05-06 12:02 35.17048 137.32940 14505 ft 381 kts 204°
2026-05-06 12:02 35.14608 137.31695 13935 ft 378 kts 204°
2026-05-06 12:02 35.12192 137.30454 13324 ft 375 kts 205°
2026-05-06 12:03 35.09799 137.29223 12752 ft 371 kts 205°
2026-05-06 12:03 35.07460 137.28018 12211 ft 368 kts 205°
2026-05-06 12:03 35.05079 137.26791 11669 ft 364 kts 205°
2026-05-06 12:03 35.02759 137.25596 11143 ft 361 kts 205°
2026-05-06 12:04 35.00486 137.24426 10965 ft 347 kts 205°
2026-05-06 12:04 34.98300 137.23302 10806 ft 335 kts 205°
2026-05-06 12:04 34.96193 137.22219 10666 ft 323 kts 205°
2026-05-06 12:04 34.94837 137.21523 10572 ft 316 kts 205°
2026-05-06 12:05 34.92846 137.20499 10443 ft 305 kts 205°
2026-05-06 12:05 34.90923 137.19511 10321 ft 296 kts 205°
2026-05-06 12:05 34.89083 137.18566 10200 ft 287 kts 205°
2026-05-06 12:05 34.87272 137.17638 10084 ft 278 kts 205°
2026-05-06 12:06 34.85515 137.16737 9893 ft 272 kts 205°
2026-05-06 12:06 34.83774 137.15844 9579 ft 271 kts 205°
2026-05-06 12:06 34.82046 137.14958 9303 ft 269 kts 205°
2026-05-06 12:06 34.80329 137.14078 9016 ft 267 kts 205°
2026-05-06 12:07 34.78621 137.13202 8728 ft 266 kts 205°
2026-05-06 12:07 34.76923 137.12332 8444 ft 264 kts 204°
2026-05-06 12:07 34.75236 137.11468 8169 ft 262 kts 204°
2026-05-06 12:07 34.73556 137.10609 7889 ft 261 kts 204°
2026-05-06 12:08 34.71887 137.09755 7614 ft 260 kts 204°
2026-05-06 12:08 34.70227 137.08907 7342 ft 258 kts 204°
2026-05-06 12:08 34.68648 137.07897 7046 ft 257 kts 220°
2026-05-06 12:08 34.67459 137.06301 6795 ft 255 kts 232°
2026-05-06 12:09 34.66385 137.04589 6514 ft 254 kts 232°
2026-05-06 12:09 34.65320 137.02881 6213 ft 254 kts 232°
2026-05-06 12:09 34.64251 137.01181 5933 ft 253 kts 231°
2026-05-06 12:09 34.63181 136.99491 5654 ft 252 kts 231°
2026-05-06 12:10 34.62112 136.97811 5377 ft 251 kts 231°
2026-05-06 12:10 34.61046 136.96137 5102 ft 250 kts 231°
2026-05-06 12:10 34.60167 136.94324 4809 ft 252 kts 252°
2026-05-06 12:10 34.59800 136.92255 4565 ft 251 kts 257°
2026-05-06 12:11 34.59544 136.90165 4266 ft 251 kts 271°
2026-05-06 12:11 34.60124 136.88190 4064 ft 253 kts 309°
2026-05-06 12:11 34.61550 136.86972 4039 ft 255 kts 335°
2026-05-06 12:11 34.63207 136.86207 3990 ft 252 kts 341°
2026-05-06 12:12 34.64852 136.85631 3887 ft 243 kts 346°
2026-05-06 12:12 34.66488 136.85192 3566 ft 239 kts 348°
2026-05-06 12:12 34.68085 136.84805 3250 ft 235 kts 349°
2026-05-06 12:12 34.69677 136.84425 2938 ft 231 kts 349°
2026-05-06 12:13 34.71232 136.84052 2627 ft 224 kts 350°
2026-05-06 12:13 34.72716 136.83695 2348 ft 211 kts 350°
2026-05-06 12:13 34.74112 136.83359 2081 ft 199 kts 350°
2026-05-06 12:13 34.75428 136.83042 1826 ft 187 kts 350°
2026-05-06 12:14 34.76639 136.82750 1602 ft 169 kts 350°
2026-05-06 12:14 34.77742 136.82485 1361 ft 155 kts 350°
2026-05-06 12:14 34.78783 136.82235 1166 ft 150 kts 350°
2026-05-06 12:14 34.79808 136.81989 983 ft 150 kts 349°
2026-05-06 12:15 34.80835 136.81739 767 ft 150 kts 348°
2026-05-06 12:15 34.81851 136.81494 569 ft 148 kts 348°
2026-05-06 12:15 34.82860 136.81253 385 ft 147 kts 349°
2026-05-06 12:15 34.83861 136.81012 161 ft 146 kts 348°
2026-05-06 12:16 34.84838 136.80778 28 ft 137 kts 349°
2026-05-06 12:16 34.85649 136.80583 22 ft 98 kts 349°
2026-05-06 12:16 34.86145 136.80500 26 ft 43 kts
2026-05-06 12:16 34.86321 136.80585 27 ft 16 kts 57°
2026-05-06 12:17 34.86273 136.80677 27 ft 15 kts 168°
2026-05-06 12:17 34.86172 136.80703 27 ft 14 kts 169°
2026-05-06 12:17 34.86075 136.80726 27 ft 14 kts 166°
2026-05-06 12:17 34.86040 136.80817 27 ft 13 kts 79°
2026-05-06 12:18 34.86058 136.80925 27 ft 13 kts 78°
2026-05-06 12:18 34.86075 136.81030 28 ft 12 kts 78°
2026-05-06 12:18 34.86089 136.81132 28 ft 12 kts 97°
2026-05-06 12:18 34.86062 136.81211 28 ft 10 kts 92°
2026-05-06 12:19 34.86064 136.81262 28 ft 0 kts 85°